This demonstration page uses our WeatherBlox Daily Observations layout. Learn more.

Left ArrowRight Arrow

40.92945, -100.16068

Hourly Observations for May 1, 2020

Temp ( °F °C ) Dew Point ( °F °C ) Humidity (%) Winds ( mph kmh ) Pressure ( in mb ) Visibility ( mi km ) Precip ( " mm )
12:15 am 00:15 Clear 64 17.5 45 7.2 51 51 SSE 14 22 29.7 1006 10 16.0934 0 0
12:35 am 00:35 Clear 64 17.6 45 7.2 51 51 S 15 24 29.7 1006 10 16.0934 0 0
12:55 am 00:55 Clear 64 17.8 45 7.3 50 50 S 15 24 29.7 1006 10 16.0934 0 0
1:15 am 01:15 Clear 64 17.7 46 7.5 51 51 S 18 30 29.7 1006 10 16.0934 0 0
1:35 am 01:35 Clear 63 17.3 46 7.5 53 53 S 15 24 29.71 1006 10 16.0934 0 0
1:55 am 01:55 Clear 63 17.2 46 7.7 54 54 SSE 5 7 29.73 1007 10 16.0934 0 0
2:15 am 02:15 Clear 62 16.8 46 7.8 56 56 NNE 5 7 29.73 1007 10 16.0934 0 0
2:35 am 02:35 Clear 63 17 46 7.8 55 55 SSE 5 7 29.73 1007 10 16.0934 0 0
2:55 am 02:55 Clear 62 16.5 47 8.1 58 58 NW 6 9 29.77 1008 10 16.0934 0 0
3:15 am 03:15 Partly Cloudy 61 16 47 8.1 60 60 Calm 29.76 1008 10 16.0934 0 0
3:35 am 03:35 Partly Cloudy 60 15.5 47 8.2 62 62 S 9 15 29.74 1007 10 16.0934 0 0
3:55 am 03:55 Clear 60 15.3 47 8.3 63 63 S 9 15 29.73 1007 10 16.0934 0 0
4:15 am 04:15 Clear 58 14.7 47 8.3 66 66 SSE 8 13 29.73 1007 10 16.0934 0 0
4:35 am 04:35 Clear 58 14.3 46 8 66 66 SSE 9 15 29.72 1007 10 16.0934 0 0
4:55 am 04:55 Clear 57 13.9 47 8.2 69 69 SSE 6 9 29.73 1007 10 16.0934 0 0
5:15 am 05:15 Clear 57 13.8 47 8.4 70 70 SE 5 7 29.72 1006 10 16.0934 0 0
5:35 am 05:35 Clear 57 14 47 8.4 69 69 S 5 7 29.73 1007 10 16.0934 0 0
5:55 am 05:55 Clear 56 13.5 47 8.2 71 71 SSE 7 11 29.72 1006 10 16.0934 0 0
6:15 am 06:15 Clear 58 14.2 47 8.3 68 68 ESE 8 13 29.69 1006 10 16.0934 0 0
6:35 am 06:35 Clear 58 14.4 47 8.1 66 66 SSE 8 13 29.69 1005 10 16.0934 0 0
6:55 am 06:55 Sunny 55 12.5 46 8 74 74 WSW 3 6 29.74 1007 10 16.0934 0 0
7:15 am 07:15 Sunny 53 11.9 46 8 77 77 W 5 7 29.76 1008 10 16.0934 0 0
7:35 am 07:35 Sunny 54 12 47 8.6 80 80 Calm 29.77 1008 7 11.26538 0 0
7:55 am 07:55 Sunny 57 13.7 49 9.5 76 76 NW 3 6 29.77 1008 10 16.0934 0 0
8:15 am 08:15 Sunny 58 14.6 49 9.6 72 72 Calm 29.76 1008 10 16.0934 0 0
8:35 am 08:35 Sunny 60 15.3 48 9 66 66 WSW 3 6 29.76 1008 10 16.0934 0 0
8:55 am 08:55 Sunny 61 16 49 9.3 65 65 WSW 3 6 29.76 1008 10 16.0934 0 0
9:15 am 09:15 Sunny 63 17.3 49 9.6 61 61 WSW 5 7 29.75 1007 10 16.0934 0 0
9:35 am 09:35 Sunny 65 18.2 49 9.2 56 56 Calm 29.73 1007 10 16.0934 0 0
9:55 am 09:55 Sunny 68 19.8 50 9.9 53 53 Calm 29.71 1006 10 16.0934 0 0
10:15 am 10:15 Sunny 71 21.6 51 10.4 49 49 N 7 11 29.7 1006 10 16.0934 0 0
10:35 am 10:35 Sunny 74 23.2 52 11.2 47 47 N 9 15 29.68 1005 10 16.0934 0 0
10:55 am 10:55 Sunny 77 24.8 53 11.6 44 44 N 9 15 29.67 1005 10 16.0934 0 0
11:15 am 11:15 Sunny 79 26.2 52 11.3 39 39 NNW 12 19 29.66 1004 10 16.0934 0 0
11:35 am 11:35 Sunny 80 26.7 53 11.4 38 38 NNW 8 13 29.67 1005 10 16.0934 0 0
11:55 am 11:55 Sunny 81 27.1 53 11.4 38 38 N 15 24 29.66 1005 10 16.0934 0 0
12:15 pm 12:15 Sunny 82 27.6 52 11.2 36 36 N 10 17 29.67 1005 10 16.0934 0 0
12:35 pm 12:35 Sunny 83 28.2 52 11.1 35 35 NW 10 17 29.67 1005 10 16.0934 0 0
12:55 pm 12:55 Sunny 83 28.2 53 11.4 35 35 N 8 13 29.66 1005 10 16.0934 0 0
1:15 pm 13:15 Sunny 83 28.4 52 11 34 34 NNW 9 15 29.66 1005 7 11.26538 0 0
1:35 pm 13:35 Sunny 84 29 52 11 33 33 N 13 20 29.66 1004 10 16.0934 0 0
1:55 pm 13:55 Sunny 84 29 52 11 33 33 NNE 16 26 29.66 1004 10 16.0934 0 0
2:15 pm 14:15 Sunny 85 29.4 51 10.3 30 30 NNW 18 30 29.65 1004 10 16.0934 0 0
2:35 pm 14:35 Sunny 85 29.5 50 10 30 30 NNW 6 9 29.65 1004 10 16.0934 0 0
2:55 pm 14:55 Sunny 85 29.5 51 10.6 31 31 N 14 22 29.65 1004 10 16.0934 0 0
3:15 pm 15:15 Sunny 86 29.8 50 9.8 29 29 N 15 24 29.65 1004 10 16.0934 0 0
3:35 pm 15:35 Sunny 86 29.9 49 9.7 28 28 N 16 26 29.64 1004 10 16.0934 0 0
3:55 pm 15:55 Sunny 85 29.6 50 10.2 30 30 N 14 22 29.64 1004 10 16.0934 0 0
4:15 pm 16:15 Sunny 85 29.7 49 9.7 29 29 NNW 17 28 29.64 1004 10 16.0934 0 0
4:35 pm 16:35 Sunny 84 29.1 51 10.3 31 31 N 8 13 29.65 1004 10 16.0934 0 0
4:55 pm 16:55 Sunny 85 29.7 48 8.8 27 27 N 13 20 29.65 1004 10 16.0934 0 0
5:15 pm 17:15 Sunny 85 29.3 48 9 28 28 NNW 15 24 29.66 1004 10 16.0934 0 0
5:35 pm 17:35 Sunny 84 28.9 49 9.3 29 29 NE 10 17 29.66 1004 10 16.0934 0 0
5:55 pm 17:55 Sunny 84 28.7 49 9.2 30 30 NE 12 19 29.66 1004 10 16.0934 0 0
6:15 pm 18:15 Sunny 83 28.5 48 8.8 29 29 NE 10 17 29.66 1004 10 16.0934 0 0
6:35 pm 18:35 Sunny 83 28.2 47 8.1 28 28 N 15 24 29.66 1005 10 16.0934 0 0
6:55 pm 18:55 Sunny 82 28 46 8 28 28 NNE 8 13 29.67 1005 10 16.0934 0 0
7:15 pm 19:15 Sunny 81 27.2 49 9.4 33 33 NE 15 24 29.67 1005 10 16.0934 0 0
7:35 pm 19:35 Sunny 79 26.1 49 9.7 36 36 NE 10 17 29.69 1005 10 16.0934 0 0
7:55 pm 19:55 Sunny 77 25 49 9.4 37 37 NE 9 15 29.7 1006 10 16.0934 0 0
8:15 pm 20:15 Sunny 74 23.5 48 9 40 40 ENE 8 13 29.71 1006 10 16.0934 0 0
8:35 pm 20:35 Sunny 72 22.2 46 8 40 40 NE 9 15 29.73 1007 10 16.0934 0 0
8:55 pm 20:55 Clear 69 20.7 46 7.7 43 43 ENE 9 15 29.76 1008 10 16.0934 0 0
9:15 pm 21:15 Clear 67 19.6 45 7.3 45 45 NE 9 15 29.78 1008 10 16.0934 0 0
9:35 pm 21:35 Clear 67 19.2 45 7.4 47 47 NE 10 17 29.8 1009 10 16.0934 0 0
9:55 pm 21:55 Clear 66 18.9 46 7.5 48 48 NNE 9 15 29.82 1010 10 16.0934 0 0
10:15 pm 22:15 Clear 68 19.9 46 8 46 46 NNE 10 17 29.83 1010 10 16.0934 0 0
10:35 pm 22:35 Clear 68 20.2 47 8.5 47 47 NNE 13 20 29.83 1010 10 16.0934 0 0
10:55 pm 22:55 Clear 68 20.2 48 8.9 48 48 NNE 15 24 29.83 1010 10 16.0934 0 0
11:15 pm 23:15 Clear 68 20 48 9 49 49 NE 18 30 29.83 1010 10 16.0934 0 0
11:35 pm 23:35 Clear 68 20.1 47 8.3 47 47 NE 17 28 29.83 1010 10 16.0934 0 0
11:55 pm 23:55 Clear 67 19.6 47 8.2 48 48 NNE 16 26 29.86 1011 10 16.0934 0 0

Powered by AerisWeather